PEGASUS DEB, 39322

Orbit data source: Space-Track

PEGASUS DEB, 39322 is space debris in LEO originally from a launch on Thu, 19 May 1994 UTC launched from the Air Force Western Test Range (AFWTR). Debris objects in space refer to the collection of defunct objects orbiting the Earth. Examples of debris include non-operational satellites, rocket bodies, and fragments generated from explosions, collisions, or faulty payload assembly.

Loading next visibility...
Identifier
39322, 1994-029AFH
Orbit
LEO
Country
Flag of USUS
Related business
Manufacturer
Unknown
Mission
Spacecraft
Bus & Motor
Unknown
Mass
Unknown
Launch date (UTC)
1994-05-19 (32 years ago)
Launch vehicle
Unknown
Launch site
Air Force Western Test Range (AFWTR)
Object type
Payload
Rocket body
Debris
Shape & HBR
Unknown shape, 0.1 m
Radar Cross Section
Small (<0.1 m²)

Expand to show TLE details & history
Last TLE update: 2 days ago

TLE from 2 days ago
0 PEGASUS DEB
1 39322U 94029AFH 26061.15596444  .00002746  00000-0  47504-3 0  9998
2 39322  81.9211 224.3527 0233984 311.7048  46.4334 14.51695592667292
Epoch: 2026-03-02T03:44Z
TLE epoch observation values (Epoch: 2026-03-02T03:44:35.327Z)
Latitude
-0.00003°
Longitude
8.25207°
Altitude
610.697 km
Speed
7.613 km/s
True Right ascension
14h 57m 24s
True Declination
0° 00' 00"
Sunlit
Object was in full shadow at epoch
Visualization orbit readout
Latitude
Unknown
Longitude
Unknown
Altitude
Unknown
Speed
Unknown
Apparent Right ascension
Unknown
Apparent Declination
Unknown
Sunlit
N/A
Visualization observer readout
Local Sidereal Time
22:04:03
Azimuth
Unknown
Elevation
Unknown
Doppler factor
Unknown
Orbital elements
Apogee altitude
883.22 km
Perigee altitude
551.181 km
Semi-major axis
7,095.337 km
Eccentricity
0.0234
Inclination
81.9211°
RAAN
224.3527°
Arg. of periapsis
311.7048°
True anomaly
48.41571°
Mean anomaly
46.4334°
Eccentric anomaly
47.42056°
Mean motion
3.63148 °/min
Orbital period
99.13 mins
BSTAR
0.00047504
Loading maneuver chart data...
Computing Atmospheric mass density...
Loading historical data...
Loading historical data...
Loading historical data...
Loading historical data...
Loading historical data...
Loading historical data...
Loading historical data...

Documentation

Showing up to 5 results
|